Temp
69 69 67 69 73 74 73 73 71 69 66 63 62 61 60 60 59 58 57 57 55 55 56 56 57 58 53 51 51 52 49 50 46 46 48 51 53 54 51 56 50 48 48
66 67 66 66 69 72 73 69 69 68 68 65 62 61 60 59 59 57 56 57 54 53 53 53 53 53 48 46 46 44 47 44 42 43 44 44 48 50 46 48 46 47 46
63 62 63 63 63 67 65 72 70 67 66 64 62 60 59 59 58 57 57 56 56 54 54 53 52 49 48 46 46 45 46 43 42 41 37 43 43 42 42 43 44 43 49
62 61 61 60 59 59 59 58 65 69 66 63 61 60 59 59 58 57 57 56 55 55 55 54 52 49 48 48 48 45 45 41 40 39 37 38 39 40 40 39 38 41 46
62 62 62 62 59 57 53 52 61 56 59 63 61 60 60 59 57 57 56 55 54 53 53 53 52 51 50 49 48 45 43 41 40 38 37 37 37 36 36 37 36 39 42
60 62 62 61 58 55 50 49 50 49 51 51 51 56 57 56 49 47 52 54 52 51 49 49 50 48 46 44 45 44 45 42 40 39 37 35 34 34 37 35 35 34 33
59 61 62 60 57 55 50 48 48 48 48 46 47 49 50 53 45 45 42 50 48 47 47 46 44 44 43 43 40 40 41 42 42 43 36 35 34 34 34 33 33 35 38
57 57 56 55 51 53 51 48 45 45 45 43 43 46 45 43 41 42 42 44 44 43 42 43 43 42 42 42 41 39 39 38 37 39 38 36 36 35 35 35 34 37 37
56 55 57 52 49 50 49 46 44 43 42 40 40 40 39 38 39 39 41 42 39 39 41 42 42 42 40 41 40 38 38 37 38 39 40 39 38 38 38 35 33 32 31
57 55 56 48 47 48 46 42 41 40 38 37 35 36 38 37 38 39 40 39 37 37 37 38 38 39 37 38 40 39 35 33 35 35 35 37 37 37 37 39 36 33 33
57 53 49 43 42 44 41 39 37 35 35 34 34 34 35 36 37 38 39 37 37 36 36 35 36 37 38 38 39 38 36 35 35 35 34 34 34 34 35 37 36 37 34
56 47 42 40 39 39 37 35 35 35 34 34 34 34 35 34 37 38 38 38 38 36 35 35 36 37 37 37 37 35 35 35 35 34 33 32 32 33 33 34 34 35 36
50 42 38 37 34 35 35 34 35 35 36 35 35 35 34 35 35 36 36 35 35 35 35 35 36 36 36 35 34 34 34 34 33 33 33 32 33 34 34 33 33 33 32
42 37 35 34 34 34 35 36 37 37 37 36 36 35 35 35 35 35 35 35 35 34 34 35 34 34 35 34 33 34 34 34 34 33 33 33 33 33 32 33 32 32 32
39 37 36 36 35 34 34 35 35 35 38 37 36 36 34 33 33 35 35 34 34 33 34 34 33 33 33 33 33 34 34 34 34 33 33 32 33 33 32 33 34 34 33
37 37 36 35 34 34 33 32 33 34 34 34 34 34 34 34 35 35 35 35 34 33 34 33 32 33 33 33 32 32 33 33 34 34 33 33 33 33 33 33 33 33 34
38 37 36 35 35 36 34 33 31 32 33 34 34 34 35 34 35 35 35 34 34 35 34 33 33 33 33 33 33 33 32 33 33 33 33 33 33 33 33 34 34 34 33
37 35 35 36 37 37 36 34 33 32 31 31 33 34 34 34 35 35 34 34 33 35 35 34 33 34 35 36 37 36 35 34 34 34 34 34 34 35 34 34 34 34 34
34 33 34 35 35 35 35 34 34 33 32 31 33 33 34 34 34 34 35 35 34 34 35 35 35 35 36 37 37 37 34 34 34 34 35 34 33 34 34 34 34 32 33
32 32 34 35 35 35 35 35 34 33 33 33 33 33 34 33 32 32 33 33 34 35 36 36 37 37 37 36 34 33 33 32 32 33 32 33 33 33 33 33 33 32 32
34 35 35 38 38 38 38 37 37 35 34 34 33 33 34 35 34 33 33 33 35 36 36 37 36 35 35 35 35 33 34 32 33 33 34 33 32 32 34 34 33 33 33
37 37 38 38 39 39 39 40 39 38 37 36 34 33 32 37 38 37 37 35 36 39 40 38 36 36 36 36 35 33 33 32 32 33 33 33 33 33 32 32 32 31 31
40 39 39 39 39 37 38 39 38 38 37 37 36 34 34 34 35 37 35 34 37 37 38 38 36 36 36 35 36 35 33 33 34 34 33 32 32 31 31 31 31 30 30
39 39 39 38 39 39 36 35 38 37 36 33 32 33 33 32 33 33 33 34 35 35 35 35 36 36 36 34 34 35 36 36 36 35 33 33 32 32 32 31 31 30 30
38 35 36 36 34 34 33 35 34 34 33 32 32 33 35 33 34 34 34 34 34 33 33 34 35 35 33 33 33 33 34 33 33 34 34 33 32 32 32 32 31 31 29
37 37 36 36 34 33 33 32 33 33 32 34 34 34 35 35 35 33 34 34 33 33 34 34 33 33 33 33 33 33 32 33 32 33 34 34 33 32 32 31 30 30 29
MSLP
998.56 998.40 998.30 997.86 997.36 997.10 997.23 997.73 998.26 999.25 999.97 1000.73 1001.50 1002.44 1003.30 1004.21 1005.02 1005.77 1006.46 1007.23 1007.86 1008.76 1009.46 1010.09 1010.62 1011.13 1012.26 1013.29 1014.11 1014.59 1015.96 1016.16 1017.39 1019.17 1020.65 1021.21 1022.16 1022.84 1024.65 1024.92 1026.03 1027.16 1027.62
998.90 998.44 998.23 998.08 997.52 996.91 996.62 997.01 997.35 997.83 998.86 999.56 1000.53 1001.23 1001.93 1002.79 1003.67 1004.42 1005.21 1005.78 1006.26 1006.97 1007.53 1009.11 1009.83 1010.91 1011.91 1012.20 1012.43 1014.65 1015.52 1016.37 1017.95 1019.23 1020.63 1021.51 1021.31 1022.79 1024.35 1024.73 1025.80 1026.76 1027.47
999.03 998.72 998.19 998.00 997.73 997.17 996.97 996.38 996.30 996.98 997.52 998.35 999.28 999.92 1000.65 1001.32 1002.12 1002.79 1003.43 1004.07 1004.78 1005.52 1006.25 1006.84 1008.20 1009.42 1010.45 1011.66 1012.62 1012.20 1014.62 1015.61 1016.88 1018.90 1019.99 1022.22 1022.00 1022.78 1024.44 1024.77 1025.31 1026.45 1027.22
998.48 998.37 998.00 997.97 998.00 997.53 997.23 996.84 996.26 996.12 996.84 997.30 997.92 998.73 999.56 1000.18 1000.79 1001.27 1001.84 1002.62 1003.32 1004.01 1004.60 1005.39 1006.30 1007.10 1007.94 1008.62 1010.58 1011.37 1014.08 1015.47 1015.64 1017.60 1019.84 1020.88 1021.67 1022.81 1023.24 1024.12 1025.23 1026.02 1026.28
998.60 998.08 997.86 997.82 997.89 997.68 997.11 996.89 996.64 996.32 996.26 996.50 997.02 997.50 998.28 999.03 999.55 1000.27 1000.91 1001.56 1002.34 1003.11 1003.66 1004.18 1004.75 1005.30 1006.41 1007.37 1008.00 1010.40 1012.35 1013.70 1014.89 1016.76 1018.11 1019.84 1021.12 1021.94 1021.96 1023.34 1024.25 1025.11 1026.01
998.30 997.61 997.54 997.64 997.60 997.50 997.35 996.96 996.85 996.72 996.91 996.96 997.02 997.32 997.58 998.33 998.68 999.52 999.70 1000.51 1001.14 1002.02 1003.39 1003.82 1003.62 1005.19 1006.44 1007.06 1007.39 1008.85 1009.09 1010.84 1013.46 1014.80 1016.84 1017.63 1019.04 1020.24 1021.58 1022.52 1023.41 1024.44 1025.77
998.06 997.85 997.56 997.50 997.72 997.23 997.65 996.75 996.81 997.45 997.18 997.11 997.45 997.87 997.78 998.04 998.69 999.39 1000.16 1000.83 1001.35 1002.23 1002.56 1003.01 1004.01 1004.75 1005.82 1007.29 1007.90 1008.53 1009.50 1010.21 1010.63 1011.89 1014.34 1015.88 1017.72 1018.77 1020.30 1021.75 1022.46 1023.04 1023.40
997.94 997.84 997.89 997.73 997.40 996.77 997.01 996.91 996.94 997.62 997.24 997.54 997.70 998.00 998.22 998.64 998.79 999.46 1000.16 1000.89 1001.50 1002.21 1002.77 1003.83 1005.20 1004.70 1005.94 1006.53 1007.94 1009.63 1010.03 1010.80 1011.24 1012.15 1013.58 1014.86 1016.16 1017.68 1018.70 1019.21 1020.52 1022.40 1023.46
997.24 997.30 997.43 997.64 996.80 996.67 996.93 997.46 998.45 996.89 997.55 998.07 998.19 998.37 998.63 998.95 999.20 999.72 1000.42 1001.05 1001.94 1002.76 1002.94 1003.36 1004.68 1005.36 1006.02 1006.85 1007.98 1009.19 1010.42 1011.29 1011.95 1012.40 1013.19 1014.36 1015.62 1016.89 1018.28 1019.96 1021.28 1022.41 1023.48
996.90 997.15 997.13 997.54 997.00 996.73 997.41 997.58 998.33 996.90 998.20 998.44 998.63 999.00 999.08 999.30 999.74 1000.02 1000.56 1001.41 1002.38 1003.39 1003.52 1004.52 1004.83 1005.70 1006.71 1007.31 1007.88 1009.40 1010.45 1011.64 1011.97 1012.94 1014.56 1015.53 1016.47 1017.43 1018.01 1018.58 1019.83 1021.18 1022.71
996.41 996.69 996.85 997.02 997.03 996.71 997.21 998.04 998.46 997.30 998.36 998.83 999.28 999.65 999.91 999.98 1000.02 1000.43 1001.10 1001.70 1002.46 1003.36 1004.01 1004.68 1005.22 1005.98 1007.10 1007.42 1007.78 1009.26 1010.17 1011.34 1012.05 1013.02 1014.52 1015.59 1016.58 1017.76 1018.61 1019.15 1019.66 1020.25 1021.48
995.75 996.57 996.74 997.19 997.17 996.98 997.48 998.10 998.42 997.67 998.58 999.50 999.54 1000.55 1000.65 1000.52 1000.73 1001.25 1001.67 1001.97 1002.77 1003.24 1004.04 1004.68 1005.31 1005.91 1006.81 1007.36 1008.66 1009.84 1010.76 1011.67 1012.29 1013.42 1014.48 1015.55 1016.53 1017.33 1018.26 1018.96 1019.78 1020.49 1021.07
995.70 996.63 996.73 996.73 997.18 997.69 997.89 998.24 998.37 998.55 999.14 999.61 1000.17 1000.72 1001.14 1001.40 1001.47 1001.89 1002.41 1002.82 1003.14 1003.87 1004.87 1005.46 1006.16 1006.60 1006.94 1008.02 1009.15 1010.29 1011.08 1011.94 1012.50 1013.26 1014.13 1015.21 1015.93 1016.85 1017.90 1019.08 1019.97 1020.51 1021.05
995.00 995.72 996.34 997.04 997.66 998.00 998.41 998.30 998.68 999.02 999.08 999.46 1000.13 1000.72 1001.58 1001.86 1002.03 1002.61 1003.15 1003.37 1004.21 1004.98 1005.95 1006.88 1007.06 1007.34 1007.88 1008.88 1010.12 1010.98 1011.23 1011.65 1012.46 1013.05 1013.90 1015.21 1016.09 1017.06 1018.05 1018.86 1019.56 1020.32 1020.96
994.46 995.46 996.20 996.76 997.66 998.17 998.69 999.14 999.04 999.26 999.20 999.68 1000.28 1000.90 1001.90 1002.43 1002.77 1002.86 1003.71 1003.69 1004.94 1005.46 1006.27 1007.18 1007.63 1008.02 1008.98 1009.84 1010.63 1011.20 1011.69 1012.26 1012.60 1012.89 1013.75 1014.67 1015.72 1016.64 1017.52 1018.24 1018.98 1019.85 1020.45
994.02 995.03 995.82 996.55 997.69 998.60 998.96 999.67 1000.02 999.80 1000.03 1000.38 1000.82 1001.32 1002.22 1002.56 1003.01 1003.73 1004.36 1004.87 1005.40 1005.90 1006.58 1007.13 1008.06 1008.70 1009.32 1010.01 1010.63 1011.20 1011.66 1012.10 1012.53 1012.95 1013.58 1014.39 1015.39 1016.16 1016.95 1017.84 1018.52 1018.94 1019.42
993.36 994.80 995.50 996.22 997.51 998.39 998.82 999.78 1000.06 1001.05 1001.09 1001.30 1001.88 1002.39 1002.78 1002.90 1003.71 1004.46 1005.20 1005.56 1006.15 1006.34 1006.91 1007.53 1008.14 1008.70 1009.13 1009.81 1010.58 1011.09 1011.50 1012.04 1012.61 1013.20 1013.68 1014.52 1015.30 1016.10 1016.66 1017.18 1017.84 1018.09 1018.58
993.50 994.38 995.32 996.57 997.63 998.40 999.21 999.93 1000.30 1000.88 1001.78 1002.66 1003.12 1003.55 1003.51 1003.91 1004.51 1005.04 1005.69 1006.22 1006.51 1006.80 1007.14 1007.71 1008.22 1008.69 1009.23 1009.88 1010.43 1010.83 1011.32 1011.77 1012.30 1013.02 1013.90 1014.35 1014.99 1015.58 1016.04 1016.45 1016.95 1017.28 1017.94
993.87 994.72 996.29 997.30 998.13 998.92 999.68 1000.27 1000.84 1001.35 1002.23 1003.00 1004.04 1004.54 1004.64 1004.97 1005.14 1005.75 1006.14 1006.22 1006.44 1007.10 1007.56 1008.12 1008.42 1008.77 1009.26 1009.97 1010.36 1010.40 1010.71 1011.41 1012.08 1012.85 1013.26 1013.86 1014.52 1015.05 1015.56 1015.88 1016.33 1016.97 1017.31
994.96 995.78 996.99 997.85 998.78 999.45 1000.10 1000.43 1001.36 1001.83 1002.69 1003.36 1004.08 1004.61 1004.74 1005.21 1005.67 1006.16 1006.55 1006.61 1006.97 1007.24 1007.77 1007.96 1008.19 1008.75 1009.05 1009.60 1010.12 1010.49 1011.00 1011.57 1012.26 1012.77 1013.14 1013.77 1014.44 1014.78 1015.10 1015.53 1015.90 1016.26 1016.82
996.53 997.30 997.96 998.47 999.28 999.84 1000.24 1000.88 1001.46 1002.20 1002.87 1003.58 1004.31 1004.73 1005.18 1005.40 1005.64 1006.30 1006.72 1006.71 1006.79 1007.18 1007.72 1008.00 1008.63 1009.08 1009.66 1009.97 1010.19 1010.31 1010.60 1011.35 1011.92 1012.50 1012.86 1013.57 1014.06 1014.63 1014.64 1014.72 1015.24 1015.90 1016.41
997.68 998.31 998.79 999.18 999.70 1000.06 1000.50 1000.99 1001.58 1002.22 1002.80 1003.60 1004.69 1005.46 1005.56 1005.49 1005.64 1006.11 1006.41 1006.73 1006.94 1007.06 1007.44 1007.74 1008.31 1009.16 1009.42 1009.58 1010.06 1010.42 1010.74 1011.00 1011.59 1012.17 1012.49 1013.06 1013.62 1013.96 1014.30 1014.63 1014.95 1015.39 1015.96
998.60 998.92 999.15 999.47 1000.00 1000.56 1000.70 1001.18 1001.68 1002.28 1003.06 1003.80 1004.47 1004.98 1005.14 1005.36 1005.46 1005.78 1006.34 1006.67 1006.75 1007.04 1007.26 1007.65 1008.33 1008.74 1009.30 1009.74 1009.92 1010.01 1009.95 1010.47 1011.17 1011.64 1012.28 1012.77 1013.10 1013.49 1013.84 1014.15 1014.64 1015.32 1015.78
999.65 999.74 999.84 1000.26 1000.30 1000.77 1001.38 1001.72 1002.20 1002.75 1003.41 1003.99 1004.30 1004.69 1005.09 1005.41 1005.65 1005.93 1006.23 1006.60 1006.84 1007.24 1007.58 1008.05 1008.37 1008.64 1008.99 1009.38 1009.71 1009.64 1009.87 1010.47 1010.93 1011.33 1011.69 1012.24 1012.52 1013.01 1013.46 1014.02 1014.53 1014.98 1015.38
1000.29 1000.48 1000.76 1001.04 1001.48 1001.74 1002.06 1002.44 1002.91 1003.33 1003.78 1004.19 1004.45 1004.61 1004.85 1005.25 1005.68 1006.10 1006.58 1006.86 1007.18 1007.58 1007.91 1008.20 1008.38 1008.51 1008.74 1008.91 1009.27 1009.52 1009.76 1010.29 1010.55 1010.95 1011.39 1011.82 1012.23 1012.72 1013.26 1013.60 1013.94 1014.38 1014.90
1001.10 1001.26 1001.49 1001.85 1002.18 1002.34 1002.75 1003.14 1003.46 1003.74 1003.95 1004.16 1004.42 1004.66 1004.88 1005.18 1005.38 1005.84 1006.20 1006.50 1006.85 1007.11 1007.38 1007.61 1007.80 1008.00 1008.20 1008.46 1008.82 1009.24 1009.63 1010.16 1010.51 1010.92 1011.21 1011.42 1011.90 1012.34 1012.72 1013.04 1013.42 1013.84 1014.42
Wind_Speed
7 7 8 10 15 15 17 18 18 16 16 16 20 20 21 20 20 20 20 20 22 20 18 19 20 18 11 8 7 10 5 4 8 5 10 13 16 17 16 14 12 12 11
9 9 8 10 10 13 15 14 17 18 17 17 17 20 22 21 21 22 23 21 23 23 23 20 19 13 13 15 11 8 7 4 5 11 8 12 17 15 15 15 11 9 10
9 9 8 8 10 10 9 15 17 15 17 17 19 21 22 23 23 24 25 24 24 24 24 23 22 20 19 15 16 15 13 9 11 11 9 9 10 12 14 11 12 11 11
11 10 10 8 9 9 10 8 11 17 18 17 18 18 19 21 23 24 25 24 22 22 23 24 24 26 27 25 19 19 15 12 12 13 11 13 12 13 12 12 11 10 12
13 13 11 10 8 7 7 7 9 5 7 16 17 19 20 21 17 22 22 21 21 20 22 23 23 26 30 26 18 20 20 15 14 13 12 12 11 12 16 9 10 10 9
14 14 12 12 10 5 6 5 4 4 4 5 5 12 15 12 15 19 19 17 19 18 16 15 14 17 21 26 27 31 27 22 17 13 11 16 16 14 12 12 11 12 8
13 16 13 11 11 7 4 3 2 4 3 4 5 6 7 9 8 11 9 8 9 11 13 12 12 13 19 19 18 21 23 27 26 19 19 16 15 18 15 15 15 15 12
14 15 15 12 9 8 5 4 1 2 2 3 5 4 4 3 11 14 14 8 8 7 10 10 10 10 13 17 15 15 14 14 14 11 15 16 14 17 20 19 19 14 6
13 14 15 11 8 6 6 4 5 3 3 2 3 5 6 5 13 17 13 10 8 7 9 10 11 12 16 20 15 14 11 8 8 10 15 19 23 29 20 11 11 11 7
15 15 12 8 8 8 5 6 3 5 4 4 5 4 7 8 14 17 14 8 10 7 8 8 12 10 17 18 14 13 12 9 12 11 8 10 13 19 27 18 15 15 8
16 12 9 5 5 7 6 1 3 8 7 6 8 5 6 8 11 17 16 8 8 8 8 7 7 20 19 16 16 11 11 12 12 12 10 8 10 12 10 8 12 12 11
16 9 7 6 4 4 7 5 5 8 9 7 9 7 5 6 11 14 15 15 13 11 8 6 9 19 17 16 11 13 19 12 9 9 9 8 9 9 10 8 9 6 4
12 11 7 7 5 2 7 7 6 7 8 8 7 8 6 5 7 16 15 15 13 9 5 7 15 18 19 12 16 19 14 8 9 8 8 7 9 10 11 8 8 6 7
10 9 8 7 8 7 3 4 6 5 7 7 7 7 6 6 7 7 8 10 15 11 12 8 9 9 9 9 10 9 6 7 8 8 8 6 6 7 7 7 8 9 7
12 11 10 10 7 7 6 3 5 5 5 8 7 8 8 6 4 9 8 8 8 10 12 7 6 6 7 6 6 5 5 6 6 6 7 8 7 8 8 8 8 9 10
13 11 10 10 9 7 8 9 15 15 18 17 13 7 7 13 16 16 17 18 18 12 7 8 7 6 7 6 6 6 5 6 5 6 7 7 7 8 8 8 7 10 11
16 14 11 11 10 10 9 9 12 13 21 18 17 15 13 15 15 16 17 18 14 9 7 6 7 6 6 6 5 5 5 5 6 5 6 6 6 7 10 9 10 10 9
15 18 11 9 9 9 9 9 8 10 10 9 13 11 15 16 15 15 15 12 6 6 6 6 6 6 7 7 7 6 7 7 7 7 7 7 8 8 9 10 11 11 10
12 11 10 10 9 10 9 9 8 10 9 9 9 9 11 14 15 13 7 6 7 6 6 6 6 7 6 6 6 5 5 5 5 6 6 6 6 7 9 9 9 12 12
12 16 12 10 10 10 8 9 8 9 9 8 7 7 8 9 6 5 4 5 5 6 5 6 6 5 5 5 5 4 5 5 6 6 5 5 6 7 7 9 9 10 11
9 10 12 10 10 10 10 11 10 9 7 7 7 6 8 7 8 7 7 6 6 7 6 6 6 6 4 4 7 6 6 6 6 7 7 7 6 8 9 8 8 9 9
10 9 9 10 11 10 11 11 11 11 10 10 9 6 3 7 8 8 7 5 4 6 6 6 5 5 5 6 7 6 7 7 6 7 7 6 6 7 7 7 7 8 9
8 9 9 8 9 10 9 9 9 9 9 9 9 8 6 5 5 6 5 4 4 3 3 4 4 5 5 4 4 5 6 6 7 7 6 7 7 6 7 7 8 8 10
7 8 10 8 7 9 8 7 8 9 8 7 6 6 6 5 4 4 3 3 2 2 2 2 4 5 6 5 5 5 6 5 5 6 8 6 7 8 8 8 9 11 10
7 7 6 7 7 6 7 7 6 7 6 6 6 5 5 5 5 4 4 4 4 5 6 5 6 7 8 7 7 9 8 6 6 6 7 7 8 9 9 9 9 8 9
7 7 6 6 5 6 6 6 5 5 5 4 4 4 4 4 4 4 4 5 5 5 6 6 6 8 6 7 9 9 7 10 10 9 7 8 8 9 8 9 11 8 10
Wind_Direction
311 305 288 283 250 235 222 216 215 209 200 195 194 194 198 200 199 199 199 198 200 206 213 214 213 200 192 178 178 177 189 137 150 131 178 173 183 177 163 178 147 168 156
315 309 307 298 284 259 232 224 213 208 204 199 192 196 197 197 196 197 201 203 201 202 198 204 207 201 185 160 162 168 168 134 123 141 138 174 174 180 163 167 164 166 164
307 305 298 301 310 292 301 248 217 209 206 200 196 197 198 199 198 201 205 205 206 206 201 197 192 185 187 183 187 168 180 157 141 151 141 180 166 157 167 168 170 165 185
312 305 297 294 297 296 301 295 267 216 209 200 194 196 201 202 204 204 209 210 209 213 204 202 195 191 188 186 190 180 176 165 139 145 157 167 167 178 171 170 166 172 182
307 296 296 291 285 291 297 287 281 267 259 207 200 202 202 204 205 208 211 210 207 205 210 205 204 201 198 193 176 174 166 158 153 156 153 164 169 176 177 170 162 160 173
302 295 295 296 296 286 293 293 275 248 253 228 223 218 208 212 213 216 215 208 202 199 198 193 207 200 193 185 176 178 168 160 165 154 168 169 176 173 171 171 160 160 163
298 290 287 283 281 280 271 252 249 258 199 184 193 196 205 215 199 181 166 206 197 217 201 184 182 183 172 174 171 171 177 175 172 166 166 174 169 174 164 170 173 181 180
288 282 279 275 269 282 280 298 213 217 198 165 161 145 127 127 142 147 140 139 144 154 150 158 182 163 171 164 164 178 181 176 168 162 172 169 171 166 175 177 177 168 130
278 279 270 260 256 249 235 201 220 133 117 111 119 123 123 118 131 129 127 125 117 115 133 143 157 164 166 163 157 161 161 157 152 141 162 169 167 171 165 146 159 153 136
276 272 259 236 229 222 222 173 184 113 110 100 79 72 121 122 129 121 119 119 116 118 100 110 124 137 146 150 147 153 153 159 144 111 111 137 157 170 165 169 161 168 156
275 269 238 206 221 188 152 147 150 113 106 97 91 79 88 113 115 114 119 123 128 125 131 129 128 141 148 141 138 158 161 147 138 133 138 137 145 161 169 175 175 175 176
265 221 194 175 176 157 133 123 118 107 110 112 107 97 72 86 112 118 124 124 137 133 130 132 136 139 139 127 131 128 137 135 136 135 138 147 154 163 168 166 171 182 162
249 192 162 127 102 111 140 135 121 126 130 125 124 119 106 96 87 93 93 92 84 90 94 112 132 132 121 111 126 134 136 143 144 147 150 154 166 167 161 158 158 137 119
193 156 133 132 122 97 73 121 132 141 125 124 122 116 109 107 103 103 98 90 85 88 98 101 107 101 94 106 120 134 131 139 151 151 147 143 137 146 160 165 164 166 166
166 154 144 131 114 99 78 42 91 55 95 133 124 123 133 119 107 107 118 112 115 114 113 105 100 98 107 113 119 117 125 139 146 138 144 145 149 157 165 166 168 175 189
153 149 143 132 116 113 110 87 61 87 86 79 76 100 87 109 116 112 110 114 118 116 109 121 121 128 132 136 138 130 129 139 139 142 146 152 160 167 164 172 178 186 193
147 145 130 119 129 135 115 118 109 70 70 77 85 89 103 114 114 119 123 121 119 111 122 127 133 138 135 136 140 146 145 143 130 141 145 157 163 176 178 183 193 193 193
132 129 116 126 128 120 119 117 112 109 105 91 69 97 94 103 110 117 120 118 104 98 119 128 134 137 149 159 166 167 161 153 162 166 176 180 182 190 193 196 198 198 198
113 106 114 117 108 112 115 109 106 103 104 104 112 98 101 104 105 109 111 114 112 117 121 133 140 146 154 167 173 168 145 153 167 177 185 179 177 193 201 204 205 203 198
90 100 109 110 119 117 119 114 114 112 118 121 120 122 114 112 118 118 105 109 126 130 142 142 146 154 159 159 142 140 149 159 169 179 178 182 185 201 209 206 205 201 201
97 98 107 112 122 128 129 131 130 129 129 123 129 140 167 149 144 147 152 151 146 142 154 149 155 155 158 170 167 167 170 168 179 183 191 197 187 207 215 211 203 201 197
97 109 120 119 126 127 127 127 128 131 130 128 129 134 172 142 141 143 141 138 124 146 153 152 151 173 182 185 188 177 182 177 176 183 190 194 200 204 209 206 196 193 188
106 113 114 111 109 120 120 117 117 119 124 129 134 142 129 118 113 113 122 132 137 131 139 146 180 178 181 192 201 183 184 189 191 188 190 187 192 199 204 205 200 199 195
102 106 108 113 112 110 104 102 112 113 119 123 121 121 125 126 117 110 109 119 136 97 122 192 221 210 199 177 200 200 201 195 184 182 183 191 197 195 203 204 201 199 196
90 90 89 94 105 104 106 107 109 113 121 129 131 127 128 133 147 164 171 171 187 185 201 204 217 203 199 196 199 206 202 185 183 175 184 200 200 194 207 205 198 194 190
90 95 92 93 95 97 104 110 112 120 125 129 138 147 151 162 172 184 190 197 201 205 205 204 209 215 217 215 213 208 196 198 197 192 201 198 199 201 199 202 192 191 189